Location: Munkebjergskolens Observatorium
(55.3864°N, 10.3987°E)
Time: 04:36:32
(UTC+02:00)

KKS-1 - Pass Details

Date: 02 April 2023
Orbit: 633 x 644 km, 98.2° (Epoch: 31 May)

Event Time Altitude Azimuth Distance (km) Brightness Sun altitude
Rises 23:03:52 0° 23° (NNE) 2,946 ? -23.2°
Reaches altitude 10° 23:06:26 10° 37° (NE) 2,031 ? -23.4°
Enters shadow 23:08:23 20° 60° (ENE) 1,491 ? -23.5°
